Estació municipal de Susqueda - Veïnat del Coll (La Selva, )

Consulta les dades en temps real de l'estació municipal de Susqueda - Veïnat del Coll





Hora UTC 01:55
Temperatura 19.4 ºC
Humitat 61.5 %
Pressió 1022.9 hPa
Pluja 0.0 mm
Velocitat vent 3.9 km/h
Direcció vent ESE
Radiació solar 0.1 W/m²

Dades diàries 2026-09-02



Hora UTC (hivern +1h; estiu +2h)
Temperatura (ºC) Humitat (%) Pressió (hPa) Velocitat vent (km/h) Precipitació (mm) Radiació solar (W/m²)
Hora UTC Aire Humitat Pressió Vel. Dir. Vel. Max Dir. Intent. màx 5 min. Rad. Sol.
00:05 19.9 67.7 1023.2 4.3 E 4.3 E 0.0 0.1
00:10 19.6 66.8 1023.2 3.7 E 8.5 E 0.0 0.1
00:15 19.6 66.7 1023.2 4.4 E 7.8 E 0.0 0.1
00:20 19.5 67.5 1023.2 4.0 ESE 7.4 E 0.0 0.1
00:25 19.5 68.4 1023.2 4.2 ESE 8.5 ESE 0.0 0.1
00:30 19.4 69.8 1023.2 4.9 ESE 8.1 SE 0.0 0.1
00:35 19.4 71.1 1023.1 4.2 ESE 8.1 E 0.0 0.1
00:40 19.3 75.2 1023.1 3.7 ESE 8.1 SE 0.0 0.1
00:45 19.2 76.9 1023.2 3.6 ESE 6.0 SE 0.0 0.1
00:50 19.0 74.7 1023.2 3.7 ESE 7.1 ESE 0.0 0.1
00:55 19.1 69.5 1023.1 4.1 ESE 8.8 ESE 0.0 0.1
01:00 19.5 65.7 1023.1 4.2 ESE 10.6 SE 0.0 0.1
01:05 19.4 66.0 1023.0 3.2 E 6.0 E 0.0 0.1
01:10 19.4 66.2 1023.0 3.9 ESE 6.7 SE 0.0 0.1
01:15 19.3 67.5 1023.0 4.9 SE 6.7 SE 0.0 0.1
01:20 19.3 67.9 1023.0 5.3 SE 7.1 SE 0.0 0.1
01:25 19.3 66.0 1023.0 3.8 ESE 6.4 ESE 0.0 0.1
01:30 19.3 63.8 1023.0 3.8 ESE 7.4 E 0.0 0.1
01:35 19.3 62.8 1022.9 3.5 ESE 7.1 E 0.0 0.1
01:40 19.4 62.0 1022.9 4.5 ESE 8.1 SE 0.0 0.1
01:45 19.4 61.7 1022.9 5.3 SE 8.5 SE 0.0 0.1
01:50 19.4 61.9 1022.9 3.5 SE 7.1 SE 0.0 0.1
01:55 19.4 61.5 1022.9 3.9 ESE 6.7 SSE 0.0 0.1
Màxima 19.9 76.9 1023.2 5.3 SE 10.6 SE 0.0 0.1
Mínima 19.0 61.5 1022.9
Total 0.0